星链-37177(STARLINK-37177)

导读

STARLINK-37177(NORAD编号68611)是美国SpaceX公司星链(Starlink)星座的一颗低轨通信卫星,隶属于全球卫星互联网项目。星链项目计划部署约4.2万颗低轨卫星,旨在为全球提供高速低延迟互联网接入,尤其服务地面基础设施难以覆盖的偏远地区、海洋和空域。该卫星运行于近地轨道,和其他星链卫星共同构建全球覆盖的通信网络,支持家庭及商业用户网络服务。作为大规模部署的星链卫星之一,它延续了星链项目小型化、批量发射的特点,助力拓展全球网络覆盖,解决数字鸿沟问题,同时其运行也引发了太空拥堵等讨论。

基本信息
目录编号:
68611
目录名称:
STARLINK-37177
国际标识:
2026-073K
轨道中心:
EARTH
卫星名称:
星链-37177
卫星全名:
星链-37177(STARLINK-37177)
卫星状态:
在轨 (已飞行160 天)
发射日期:
2026-04-05 UTC
国别 :
美国 (US)
星等 :
--
该卫星已列入 空间交会检测服务 Space Conjunction Data Service (SCDS) ,当前飞行风险评估等级: 无高风险
轨道信息
数据来源 国际轨道数据
星历时间: 2026-09-11T20:20:18+0800
19小时前
查看轨道信息
半长轴: 6843.645km
偏心率: 0.0001935
轨道倾角: 97.284°
近地点辐角 92.740°
升交点赤经 92.661°
平近点角 267.407°
近地点: 464.183km
远地点: 466.833km
周期: 93.905分钟
每日圈数: 15.33457
详细信息
固有亮度:
5
最大亮度:
2.5
卫星平台:
Starlink V1.0
覆盖范围:
全球
运营商:
太空探索技术公司
运营商所在国:
美国
制造商(研发单位):
太空探索技术公司
制造商所在国:
美国
使用方式:
暂无
卫星简介
Starlink 计划是 SpaceX 推出的全球卫星互联网项目,通过发射低轨道卫星,为全球尤其是偏远地区提供高速、低延迟的互联网服务。自 2019 年起,Starlink 已部署数千颗卫星,旨在缩小全球数字鸿沟,推动互联网普及。该项目还为军事、航空等行业提供通信支持,带来广泛经济效益。
2D轨道图
3D轨道图
轨道高度分析图
轨道倾角分析图
轨道综合分析图
查看轨道综合分析图
交会数据列表
事件ID 空间交会对象 最接近时刻(TCA) 交会距离 交会风险概率(CRP) 交会风险指数(CRI) 操作
CDM_260914-040905-305006-861121
2026-09-14T
04:09:36+0000
0.963 km
远距离
1.010883E-5 中风险 0.55
CDM_260913-233005-802006-861121
NESS (58020)
2026-09-13T
23:30:08+0000
1.618 km
极远距离
4.672496E-6 低风险 0.48
CDM_260909-065104-177206-861122
2026-09-09T
06:51:35+0000
2.294 km
极远距离
2.085967E-6 低风险 0.41
CDM_260912-151105-253906-861121
2026-09-12T
15:11:41+0000
2.572 km
极远距离
1.445075E-6 低风险 0.38
CDM_260914-045605-305006-861121
2026-09-14T
04:56:34+0000
2.431 km
极远距离
7.363517E-7 极低风险 0.32
与全量物体交会距离演化趋势
与全量物体交会风险概率演化趋势